sat.trackr.live / text

‹ back to catalog

STARLINK-3117

NORAD 49435 · 2021-104AD

PAYLOAD ACTIVE UNKNOWN

§ Identity

Operator
Country
US
Launch date
2021-11-13
Launch site
AFETR
Launch vehicle
Mass (kg)
RCS (m²)

Purposes: comms

External: N2YO · Heavens-Above · Gunter

§ Orbital elements

Epoch: 2026-05-24T22:42:16.595424Z

Period
95.44 min
Inclination
53.2152°
Eccentricity
0.0001466
Mean motion
15.08787740 rev/d
Perigee alt
538.9 km
Apogee alt
540.9 km
Semi-major
6,918.0 km
B*
1.0490e-3
RAAN
226.7952°
Arg perigee
87.5150°
Mean anomaly
272.6009°
Rev number
25,042

§ Raw data

STARLINK-31171 49435U 21104AD  26144.94602541  .00016422  00000+0  10490-2 0  99912 49435  53.2152 226.7952 0001466  87.5150 272.6009 15.08787740250427

JSON: /api/v1/satellites/49435 · /tle

For live sub-satellite position, see the globe view (requires WebGL).

§ Visibility from observer

Set your observer location to see the next 7 days of passes ≥ 10°. The values pass through the URL so the page stays shareable.

No JS? Fill the form by hand. The geolocation button needs JavaScript.